Theta_e
353 353 353 353 353 353 352 350 349 349 349 349 349 349 350 352 352 352 351 350 349 348 347 347 347 347 347 348 348 349 350 351 352 353 352 350 349 347 344 341 341 343 341 339 340 341 342 345 346 346 343 336 338 342 341 342 342 341 341 341 341 341 341 341 340 340 339 338 338 338 339 339 339 340 341 341 342 342 342 342 342 342 342 341 341
353 353 353 353 352 352 352 351 349 348 348 348 348 349 350 350 351 352 351 350 348 347 347 347 347 346 347 347 347 347 348 350 351 352 352 351 350 348 346 342 340 342 343 342 341 341 341 343 346 347 345 337 334 340 341 341 341 340 340 340 340 341 341 341 341 340 339 338 337 337 337 337 338 338 340 341 341 342 342 341 341 341 341 341 340
353 353 354 353 351 351 351 350 349 348 348 348 347 348 349 350 352 352 351 351 349 347 347 347 347 347 348 348 347 347 348 349 350 350 350 351 351 350 349 346 341 339 342 344 343 342 341 342 343 345 346 341 334 336 339 339 339 339 338 338 339 340 341 342 341 340 340 340 339 338 338 337 337 338 339 339 340 340 340 340 340 340 340 340 340
354 354 353 353 351 350 350 349 349 349 348 349 349 348 348 350 353 354 352 351 350 348 348 347 347 347 348 348 348 348 348 349 349 349 349 349 351 350 350 350 346 341 340 343 344 344 343 342 341 342 345 344 338 334 335 338 339 338 337 337 337 338 339 340 342 341 341 341 341 341 340 339 339 339 339 339 339 338 338 338 338 338 338 338 338
352 351 352 353 353 352 351 349 349 348 349 350 351 350 348 348 351 353 353 352 351 350 349 349 348 347 347 348 348 348 349 349 349 349 349 349 350 351 350 350 350 347 343 341 341 343 345 343 342 340 341 342 340 337 336 336 338 339 339 337 337 336 336 338 340 341 341 341 342 342 342 342 342 341 340 339 339 339 338 338 338 337 337 337 337
349 348 350 351 351 351 351 350 350 349 349 351 352 351 349 348 348 350 352 352 351 350 350 350 349 348 348 348 348 349 349 349 349 349 349 349 349 350 351 350 351 350 349 346 342 342 344 345 343 342 340 340 339 338 338 337 336 338 338 337 336 336 336 336 337 339 341 342 342 342 343 343 342 342 342 341 341 341 340 340 339 339 338 338 337
349 350 350 351 351 351 350 350 351 351 351 352 353 352 350 348 348 348 348 350 351 351 350 351 351 350 349 349 349 349 349 350 350 349 349 349 349 349 350 350 351 350 351 351 349 345 344 344 345 344 341 340 339 338 338 337 337 337 336 335 335 335 336 336 335 336 339 340 341 342 342 343 343 343 343 342 342 342 341 341 340 341 340 339 339
350 352 352 353 353 352 351 350 352 353 354 354 353 353 351 348 348 347 346 346 347 350 351 351 351 350 349 350 350 349 350 350 350 349 349 349 350 350 349 349 350 350 350 351 351 351 349 346 345 345 343 341 339 339 338 337 338 338 336 335 335 335 335 335 336 335 336 337 339 340 341 341 341 342 342 342 342 342 341 341 341 340 340 339 339
351 353 353 353 354 353 353 352 352 352 354 356 354 353 352 350 348 347 347 345 343 345 348 351 351 350 350 349 350 350 349 349 349 349 349 349 350 350 350 350 350 350 350 350 350 351 352 349 346 345 345 343 341 339 339 338 338 339 338 337 336 336 336 337 337 337 337 337 337 338 338 339 339 340 340 341 341 341 341 340 340 339 339 339 338
352 353 354 353 353 352 353 354 352 351 352 354 355 353 352 351 349 347 347 347 345 343 343 347 351 351 350 349 350 351 350 349 349 349 348 349 350 350 349 350 350 350 351 350 350 351 352 352 350 347 345 344 343 341 339 338 338 338 339 340 341 341 342 341 342 341 340 340 340 339 340 340 339 339 339 340 340 340 339 339 339 338 338 337 336
352 351 353 353 352 351 353 354 354 353 352 353 355 354 352 351 351 349 348 349 348 345 342 344 348 350 350 349 350 352 352 350 349 349 349 349 349 349 349 349 350 351 351 351 350 350 351 354 352 350 349 346 344 343 341 339 338 338 339 340 343 345 346 346 346 345 345 344 344 343 343 342 342 341 341 341 340 340 339 339 338 337 337 336 335
353 351 348 348 350 351 352 353 353 352 352 353 353 354 354 352 352 350 349 349 349 348 346 344 346 349 350 349 350 353 352 350 350 350 349 348 348 348 348 348 349 350 351 351 350 350 351 353 353 353 353 350 347 345 343 342 340 338 338 339 341 344 346 347 347 347 346 346 345 345 344 344 344 343 342 342 342 342 341 340 340 339 339 338 338
353 352 349 346 346 348 349 350 351 351 351 352 352 354 355 354 353 352 350 349 348 349 348 347 347 349 350 350 351 351 350 349 350 350 349 348 347 348 348 348 347 348 350 351 350 350 350 352 353 353 354 354 352 349 346 345 343 341 339 338 338 340 343 345 346 346 346 345 345 345 345 345 345 344 343 343 342 342 342 343 343 343 342 342 342
350 351 351 350 348 348 349 349 349 351 353 353 352 354 355 354 354 352 352 351 348 348 350 350 349 348 348 350 349 349 349 349 349 349 348 348 346 346 347 348 348 347 348 349 350 350 348 349 352 352 352 353 354 353 350 347 345 343 340 338 338 339 341 341 341 343 344 344 343 343 344 345 345 345 345 344 343 343 343 344 344 344 344 344 344
350 350 351 352 351 350 351 350 350 351 353 354 353 354 354 354 353 352 352 351 349 350 351 351 349 348 347 347 346 347 349 349 349 349 347 347 345 345 346 347 348 348 347 348 349 349 348 347 349 352 352 352 352 352 352 350 347 345 342 339 338 338 338 338 339 339 340 342 342 342 343 344 345 346 347 347 347 346 345 345 345 345 345 345 344
349 349 349 349 349 349 349 350 351 352 352 352 352 353 353 353 352 351 351 349 348 349 350 350 349 348 346 345 345 347 348 347 349 350 348 347 344 343 345 345 347 348 348 348 348 349 349 348 348 349 352 353 353 351 351 350 349 349 347 343 341 340 340 339 340 341 341 342 343 344 344 344 346 346 347 348 348 347 347 347 346 346 346 345 345
347 347 347 347 347 348 348 350 350 351 352 351 350 350 350 350 350 349 349 349 348 347 349 350 348 347 346 344 345 347 347 346 347 348 348 346 345 344 344 345 346 347 349 349 348 348 349 349 349 349 351 353 354 353 351 350 350 350 350 348 343 341 341 342 341 342 342 342 343 345 345 345 346 346 347 347 347 347 347 347 347 347 347 346 346
345 345 345 346 346 346 347 347 348 349 350 350 349 348 347 347 347 347 347 348 349 347 348 349 344 343 346 346 347 349 348 347 347 349 349 346 345 346 345 344 345 347 348 350 349 348 348 349 350 350 351 351 352 353 353 351 350 350 351 351 348 344 341 341 341 340 340 341 341 343 344 345 346 345 345 345 346 346 347 347 347 347 347 347 348
343 343 344 344 344 344 345 345 345 346 348 349 349 348 347 346 345 346 347 347 348 344 344 347 343 340 344 346 347 350 349 346 346 348 349 347 345 345 346 346 345 346 349 350 350 350 349 349 349 350 351 351 351 352 353 352 352 351 350 350 350 348 344 341 341 340 339 340 340 342 343 344 344 344 344 345 346 347 347 348 348 348 348 348 348
342 342 342 343 343 344 344 345 345 346 346 347 348 348 347 347 346 346 347 348 347 342 340 344 345 342 345 346 346 349 350 348 344 343 346 348 347 345 346 346 345 346 347 349 350 350 350 350 350 349 350 352 352 351 352 352 353 352 351 350 350 349 346 341 341 341 340 340 340 341 342 343 343 343 344 344 346 348 348 348 348 348 348 348 348
341 341 341 342 343 343 344 345 345 345 346 346 346 347 347 346 346 346 346 346 345 344 342 343 344 345 345 344 343 345 347 346 342 341 345 348 347 345 346 347 346 345 345 347 349 348 348 350 350 350 349 350 352 352 351 351 351 351 352 352 350 350 347 344 342 341 341 340 340 340 341 342 342 343 344 346 347 348 347 347 347 348 348 348 347
340 341 341 341 342 343 344 344 344 345 346 346 345 346 346 345 346 345 343 343 344 344 343 343 343 345 344 343 342 342 344 345 341 342 347 349 346 345 345 346 348 346 343 345 348 348 347 347 349 350 350 350 350 351 352 351 350 350 350 351 350 350 348 345 344 342 342 342 341 341 341 340 341 342 343 344 345 346 345 344 345 347 348 348 348
340 340 340 340 341 342 342 343 343 344 344 345 344 344 344 344 345 345 343 343 344 344 343 342 342 343 344 343 341 340 343 344 341 343 347 348 346 344 345 345 347 346 343 344 348 350 348 347 346 348 350 350 350 350 350 351 350 350 349 348 348 348 347 344 343 341 341 341 341 341 341 340 340 340 340 341 342 342 342 342 344 347 348 349 349
340 340 339 339 340 341 341 342 342 343 343 343 343 342 343 343 343 344 344 344 344 344 343 343 342 342 343 341 340 341 342 339 339 343 347 347 344 344 345 345 345 346 343 345 348 348 348 347 345 346 348 350 350 350 349 350 350 350 349 346 343 343 344 344 343 341 340 340 340 340 341 341 340 339 339 339 340 341 340 342 345 348 349 350 351
339 339 338 338 339 340 341 341 342 342 342 343 342 342 343 343 343 343 342 343 344 343 343 343 343 342 341 341 340 341 341 339 340 343 345 346 344 344 346 345 345 344 343 345 347 347 347 346 345 345 346 348 350 351 351 350 350 349 348 347 342 339 338 338 339 341 341 341 340 340 340 340 340 339 338 338 338 340 340 340 344 348 349 350 351
338 338 337 338 338 339 341 341 342 342 343 342 341 342 342 342 342 342 341 341 343 344 343 343 343 343 343 342 341 340 341 342 343 344 345 346 346 346 346 345 344 343 341 343 346 347 346 345 346 347 347 348 348 349 351 351 351 350 348 347 346 341 335 334 335 339 342 343 342 342 340 340 340 339 338 337 338 339 340 340 344 347 348 349 350
337 337 337 337 337 339 340 340 341 341 341 341 340 340 341 340 340 341 341 341 342 343 343 342 342 343 343 344 343 342 343 343 344 343 344 346 346 346 346 344 343 342 340 340 343 346 345 344 345 347 349 350 349 349 350 351 350 350 348 347 345 341 336 334 336 339 342 343 343 343 342 341 340 339 339 338 339 340 341 343 345 346 346 348 348
337 337 337 337 337 338 338 339 340 340 339 340 339 338 338 338 339 339 340 339 340 342 343 343 342 342 342 343 344 344 343 344 344 342 343 344 345 344 344 342 341 341 339 338 341 342 343 344 344 347 349 350 351 351 350 350 350 350 349 348 347 345 342 339 339 340 341 342 343 343 343 342 341 341 341 341 342 342 344 345 345 345 345 346 346
336 336 336 337 337 337 337 338 339 339 338 338 338 337 337 337 338 338 338 338 338 339 340 340 341 342 342 341 341 341 343 344 343 340 341 342 343 343 342 341 340 340 339 339 340 340 340 342 342 345 347 349 351 351 350 351 350 349 350 349 348 348 349 346 341 340 341 342 343 343 343 343 343 343 343 343 344 344 345 345 345 344 344 345 345
336 336 336 336 336 337 337 338 338 338 339 338 338 338 338 337 337 338 338 337 337 338 338 338 337 338 339 340 341 341 341 343 342 341 340 340 341 342 341 340 340 340 339 339 340 339 339 340 340 341 344 348 351 352 351 351 350 350 350 349 348 349 351 350 345 342 342 343 343 344 344 344 344 344 344 344 345 345 345 345 345 345 345 345 345
335 336 336 336 336 336 337 337 336 336 337 337 337 338 337 337 336 336 336 337 337 337 337 337 336 335 335 336 338 339 340 342 343 342 341 341 343 344 342 341 341 341 340 339 339 340 340 340 340 340 341 346 350 352 351 350 350 351 351 349 349 350 351 351 349 344 343 344 344 345 345 344 344 344 344 345 346 346 346 346 346 347 346 347 347
335 336 336 336 336 337 336 336 335 335 336 336 336 336 336 336 336 335 335 335 336 335 335 336 336 336 336 335 335 336 337 340 341 340 341 342 343 343 342 341 341 340 341 341 341 341 340 339 340 340 341 345 349 352 350 348 349 352 351 349 350 352 352 352 350 346 344 345 345 345 345 345 345 345 345 346 346 347 347 347 347 347 347 347 347
335 336 336 336 337 337 336 336 336 336 336 337 336 336 336 336 335 335 335 335 335 334 334 333 334 335 336 336 336 336 334 336 338 339 339 341 341 342 341 340 340 340 340 342 343 343 342 340 341 341 341 344 348 351 351 348 349 352 351 350 351 353 352 353 353 350 346 344 345 345 345 345 345 346 346 347 347 347 348 347 348 348 348 348 348
335 336 336 336 337 338 337 337 337 337 336 337 336 336 336 336 336 335 334 334 334 334 333 334 334 334 334 334 335 335 333 333 335 336 338 340 340 341 341 341 341 340 341 343 344 343 342 341 342 343 342 344 347 349 350 350 350 351 353 352 351 350 352 353 354 353 350 347 344 344 345 346 346 347 347 347 347 347 346 345 344 345 345 346 347
333 334 335 336 337 338 338 337 338 337 336 335 335 335 336 336 336 335 334 334 333 333 332 333 333 333 333 333 333 334 333 332 333 334 338 341 339 339 341 342 342 341 341 344 344 343 343 341 341 343 343 344 346 347 348 350 351 351 353 354 353 352 352 353 352 352 352 350 346 344 345 346 346 345 345 345 345 344 343 341 341 342 343 344 344
333 334 335 336 337 338 338 338 339 338 336 334 334 334 335 335 335 334 333 333 332 331 331 332 332 332 333 333 333 333 333 334 334 334 337 341 340 339 339 339 340 339 339 342 342 342 343 342 341 342 342 344 346 347 348 349 350 351 352 353 355 354 351 348 347 350 352 352 349 346 345 344 344 344 344 343 343 342 342 342 342 343 343 343 344
332 332 333 335 336 337 337 337 338 338 337 335 335 335 335 335 335 333 332 332 331 330 330 331 331 331 331 332 331 331 331 333 334 334 335 341 342 339 337 337 338 338 338 339 340 341 342 342 341 342 342 344 346 348 349 348 348 350 351 351 353 354 350 347 348 351 352 351 350 348 346 344 344 346 346 345 344 343 343 343 343 343 343 343 344
330 330 332 333 335 337 338 338 337 338 337 336 336 336 335 335 334 332 331 331 330 329 330 330 330 330 330 330 330 331 330 331 333 333 334 338 341 340 338 337 338 338 337 339 340 340 342 342 342 341 342 344 346 348 349 349 348 348 349 350 351 352 352 350 350 351 351 352 351 349 347 346 346 346 346 346 345 344 344 345 344 343 343 342 343
328 329 331 333 335 336 338 338 337 337 337 337 336 336 336 335 333 332 331 330 329 329 330 330 330 329 329 328 329 329 329 329 331 332 333 335 340 341 339 337 338 338 337 339 341 340 340 342 342 341 341 343 345 347 348 349 349 348 347 348 349 350 351 351 351 350 351 353 353 350 348 347 347 347 346 346 345 345 345 345 345 344 344 342 342
328 329 331 332 333 334 335 336 336 337 338 338 337 336 336 334 332 332 331 330 329 329 330 330 329 328 328 327 326 326 326 327 328 330 331 333 338 340 338 338 339 338 336 339 342 341 341 343 343 341 341 342 344 345 347 347 348 349 348 347 348 349 348 350 352 351 350 353 354 351 350 350 349 348 346 344 343 343 343 344 343 342 342 342 342
328 330 331 331 332 332 333 335 336 337 338 339 338 335 333 332 331 331 330 329 329 329 329 330 328 327 326 324 323 323 324 324 326 328 329 330 333 336 337 338 339 338 339 340 342 341 342 343 342 341 341 342 343 344 346 346 347 348 347 346 348 348 346 346 351 352 351 352 353 352 353 353 352 351 350 346 343 341 341 341 340 339 340 341 341
329 330 331 331 331 331 332 334 335 336 337 339 338 334 329 328 329 330 330 330 329 329 329 329 327 325 324 323 322 322 322 324 326 328 330 330 331 332 335 336 336 338 342 344 343 341 342 342 340 340 341 341 341 342 343 345 346 346 346 347 348 349 347 348 351 354 352 351 352 353 353 354 354 354 354 352 349 345 341 338 336 336 338 340 340
330 330 330 331 331 331 332 333 333 334 335 337 338 334 328 326 326 329 331 330 329 330 329 327 326 325 324 323 322 322 322 323 324 326 328 327 328 330 332 333 334 335 339 343 343 341 341 340 338 339 340 340 340 340 341 343 345 345 347 348 348 349 349 349 351 352 352 351 351 352 352 353 354 354 354 354 353 350 346 343 340 338 337 340 341
329 329 329 330 331 332 333 332 332 331 332 334 335 333 330 327 326 327 330 331 330 330 328 326 326 325 325 324 323 322 322 322 323 325 325 323 325 328 329 331 333 333 335 337 339 339 340 341 340 340 340 340 340 340 341 342 343 345 347 348 349 349 348 349 349 349 350 351 351 352 351 353 355 354 353 353 353 351 349 348 345 342 339 339 340
328 329 329 329 331 332 332 331 331 331 330 331 333 332 330 328 326 327 329 331 331 330 329 327 326 325 324 324 325 324 323 322 323 324 323 321 323 324 326 329 332 333 333 334 335 337 339 341 342 341 340 340 340 341 341 341 343 346 347 347 348 349 348 349 348 347 351 353 351 352 352 352 354 354 352 352 352 351 351 348 345 343 341 341 342
328 329 329 329 330 331 330 329 329 330 329 329 330 330 329 328 326 326 328 331 331 330 329 329 328 326 325 325 325 325 324 323 322 322 321 321 321 322 324 327 330 333 335 334 334 335 337 339 340 340 339 339 340 341 341 341 342 345 347 347 347 348 348 348 346 348 353 353 352 352 352 351 352 353 351 350 351 351 351 350 347 345 344 343 343
328 328 328 328 329 329 328 328 328 328 328 328 327 327 327 327 325 325 328 331 331 330 330 330 329 328 327 326 326 326 325 324 323 321 321 321 320 321 324 327 329 333 335 336 335 335 335 337 338 339 339 338 339 341 342 342 344 345 346 346 346 346 346 346 347 349 351 352 351 351 351 350 351 351 350 350 350 351 350 349 348 346 345 344 344
327 326 326 326 327 327 327 327 328 328 328 328 327 326 326 326 325 326 330 332 331 331 331 330 329 329 328 328 327 327 326 325 323 322 322 322 320 321 324 326 328 331 335 337 337 336 336 336 337 338 338 338 339 341 341 342 343 344 345 344 343 343 345 346 347 347 347 349 351 351 350 349 350 351 350 349 349 350 349 348 348 347 345 345 344
326 325 325 325 326 326 326 327 328 329 328 328 327 326 325 326 326 328 331 332 332 332 331 330 329 329 328 328 328 327 327 325 324 323 323 322 322 321 323 325 326 329 333 337 338 337 336 336 336 337 338 338 338 339 339 340 340 342 344 343 340 340 343 345 345 345 346 347 349 350 349 348 349 350 350 349 349 349 348 348 349 347 345 344 345
326 325 325 326 326 326 326 326 327 328 327 327 327 326 325 325 326 328 331 332 331 331 331 330 329 328 328 328 328 328 328 327 326 326 325 324 323 321 321 323 325 326 330 334 337 339 337 337 337 336 337 338 337 338 338 339 339 340 342 342 341 341 343 344 344 345 345 346 347 348 348 348 349 350 349 349 350 349 347 347 349 347 345 345 346
326 326 325 326 326 326 326 326 326 327 328 327 327 326 326 325 326 328 331 332 331 330 331 330 329 329 328 328 327 327 328 328 327 327 327 325 324 322 321 323 324 325 326 329 333 338 338 337 337 336 336 337 337 337 338 338 338 339 340 341 341 342 342 343 343 344 345 345 346 347 347 347 348 350 350 349 350 350 347 347 348 347 345 346 347
Wind_Speed
9 9 9 9 10 10 10 11 11 11 10 10 10 9 9 10 11 11 11 10 10 9 8 8 8 8 8 8 8 8 8 8 9 9 10 10 9 10 11 11 11 11 11 11 12 12 12 12 13 14 14 14 16 16 15 15 14 14 13 13 12 12 12 11 11 11 11 11 10 10 10 10 10 10 10 10 10 10 10 9 9 9 9 8 8
10 10 10 10 10 11 11 11 12 12 12 11 10 10 10 10 10 11 12 11 11 10 9 9 9 8 8 8 9 9 9 9 9 10 10 10 10 10 12 13 13 13 13 13 13 13 13 13 14 15 16 14 16 17 16 15 15 15 14 13 13 13 13 13 12 12 12 11 11 11 11 11 11 11 11 11 11 11 11 10 10 10 10 9 9
12 11 11 11 11 12 12 11 12 12 12 12 11 10 10 10 10 11 12 12 12 12 11 10 10 9 9 9 10 10 10 10 10 10 11 11 10 10 11 13 14 14 14 14 14 15 15 14 14 15 16 16 16 17 17 17 16 16 15 15 14 14 14 14 13 13 12 12 12 12 12 12 12 12 12 12 12 12 11 11 11 11 11 10 10
13 13 12 13 13 13 12 12 13 12 12 12 12 11 11 10 10 11 12 13 13 13 12 12 11 11 10 11 11 10 10 10 10 11 11 11 11 11 11 12 14 15 16 16 15 15 16 17 16 15 16 17 17 17 18 18 17 17 17 16 16 15 15 15 14 14 14 13 13 13 13 13 13 13 13 13 13 12 12 12 12 12 11 11 11
15 16 15 14 14 14 14 14 14 13 12 12 12 12 12 12 11 11 12 13 14 14 14 13 13 12 12 11 11 11 11 11 11 11 11 11 11 11 11 12 12 14 16 17 17 16 17 18 18 17 17 17 18 18 18 18 18 18 17 17 17 17 16 16 16 15 15 14 14 14 14 14 14 14 14 13 13 13 13 13 13 12 12 12 12
18 18 17 17 17 16 17 17 16 15 13 13 13 13 12 13 13 12 12 13 14 15 15 14 13 13 13 12 11 11 11 11 11 11 11 11 11 11 11 11 12 13 14 16 17 18 18 18 19 19 19 19 18 19 19 19 19 19 18 18 18 18 18 17 17 16 16 15 15 15 15 15 15 15 14 14 14 14 14 14 14 13 13 13 13
19 18 18 18 18 18 20 19 17 15 14 13 13 13 13 14 13 13 13 13 14 15 15 15 14 14 13 13 12 12 12 12 12 11 12 12 12 12 12 12 12 13 13 13 15 17 18 19 20 21 21 21 20 20 20 20 20 20 20 19 19 19 19 19 18 18 18 17 17 16 16 16 16 16 15 15 15 15 15 15 14 14 14 14 14
19 19 20 19 18 19 20 18 16 15 14 14 14 14 15 18 17 15 15 16 16 16 15 15 15 15 15 14 13 13 12 12 12 12 12 13 13 13 12 13 13 13 14 14 14 15 17 18 20 21 22 22 22 22 21 21 21 20 20 20 20 20 20 20 20 19 19 19 18 18 18 17 17 17 17 17 16 16 16 15 15 15 15 15 14
21 21 22 23 21 19 19 20 18 17 16 16 17 17 18 20 21 20 19 19 19 19 18 16 16 15 15 16 15 14 14 13 13 13 13 13 13 13 13 13 13 14 14 15 15 15 16 17 19 21 23 23 24 24 23 23 22 21 21 21 21 21 21 21 21 20 20 20 20 19 19 19 19 19 18 18 18 17 17 16 16 16 16 16 16
22 24 25 26 25 21 20 21 20 20 19 19 19 20 21 22 24 25 22 22 21 22 21 18 16 16 16 16 16 15 14 14 14 13 14 14 14 14 14 14 14 15 15 15 15 15 15 16 17 19 22 24 25 25 25 25 24 23 23 22 22 21 21 21 21 21 21 21 20 20 20 20 20 19 19 19 19 19 19 18 18 18 18 17 17
19 22 24 23 23 22 20 20 21 22 22 21 20 19 21 22 23 25 24 23 23 23 24 21 17 16 16 16 16 15 15 15 14 15 15 15 15 15 15 15 14 15 15 15 15 15 15 15 16 17 20 24 26 26 26 26 26 25 25 24 23 22 21 21 22 21 21 21 21 21 21 21 20 20 20 20 20 20 20 20 19 19 19 19 19
14 17 20 20 20 19 18 18 20 23 22 22 21 19 20 20 21 21 22 24 23 22 25 23 19 18 17 17 17 17 17 17 16 17 17 17 16 16 16 15 15 16 16 16 15 16 16 16 16 16 18 21 24 27 27 28 27 27 26 26 25 23 23 22 22 22 22 22 21 21 21 21 21 21 20 20 20 20 20 20 20 20 20 19 19
10 12 15 16 18 19 20 20 20 22 23 23 21 18 18 19 19 18 20 23 24 24 25 22 17 16 16 17 19 20 19 19 19 20 19 18 17 17 17 17 16 16 16 16 16 16 16 16 17 17 17 17 19 23 25 27 28 29 29 28 27 26 25 24 24 23 23 23 22 22 22 22 22 21 21 20 20 20 20 20 20 20 20 20 19
11 11 11 12 15 16 18 20 20 20 21 21 20 17 17 17 18 18 17 20 23 23 22 18 14 16 16 13 14 17 19 20 21 21 21 21 20 19 19 19 19 18 17 16 17 18 18 18 18 18 18 18 17 18 21 24 27 29 31 30 29 28 27 27 26 26 25 24 24 23 23 22 22 23 22 22 21 21 21 21 21 20 20 20 19
12 12 12 12 14 15 15 16 16 16 17 17 17 17 18 17 18 19 18 18 21 21 20 19 16 14 13 10 10 11 12 15 20 21 21 21 22 22 21 21 20 20 19 18 18 18 18 19 19 19 19 19 18 18 18 21 24 26 29 30 30 29 29 28 27 27 27 26 25 25 24 23 23 23 23 23 23 23 23 23 23 23 22 21 21
13 14 14 15 15 16 15 14 14 15 15 15 15 15 15 16 18 20 20 19 20 19 19 23 23 16 6 6 10 10 8 10 14 18 19 20 23 24 22 21 21 20 20 20 19 19 19 19 20 20 20 20 19 19 19 20 22 23 26 28 29 29 28 28 27 27 27 27 26 25 25 24 23 23 23 23 23 23 23 23 23 23 23 23 22
13 14 15 16 16 17 15 14 14 13 14 15 14 13 13 15 18 20 22 21 20 20 18 22 28 25 14 8 11 9 7 10 11 12 16 19 21 22 21 20 20 20 20 21 21 20 20 20 20 21 21 21 20 20 20 20 21 22 24 27 28 28 28 28 27 27 27 26 26 25 25 24 23 23 22 22 22 22 22 22 22 23 23 22 22
12 13 14 15 16 16 15 15 14 13 13 14 14 14 15 16 17 20 22 22 21 20 18 21 25 27 24 20 19 15 8 8 8 5 8 13 14 14 16 18 19 19 19 20 21 21 22 21 21 21 22 22 22 21 21 22 22 22 23 25 27 27 27 27 28 28 27 27 26 26 25 25 24 23 23 22 22 22 22 22 23 23 23 22 22
12 13 14 14 15 15 15 16 15 13 12 13 14 14 15 16 17 18 19 21 22 20 20 21 19 23 28 28 27 24 16 10 8 6 5 8 11 14 15 14 15 17 18 19 19 20 21 22 22 22 22 22 23 23 22 22 23 24 25 26 26 26 26 26 26 26 27 27 27 26 26 25 25 24 24 24 23 23 23 23 24 24 24 23 23
12 13 14 14 14 14 13 13 13 12 11 12 13 12 13 15 15 16 16 18 21 21 22 22 17 20 25 26 26 24 20 18 19 16 9 6 9 13 15 15 16 17 17 18 19 19 19 21 21 22 22 22 23 23 23 23 23 24 25 27 29 29 29 28 27 26 26 27 27 27 27 26 26 25 25 25 25 24 24 24 24 24 24 24 23
12 12 13 13 12 11 11 10 11 11 11 12 12 11 12 13 13 14 15 17 20 20 22 22 19 18 18 21 24 21 17 20 25 23 12 8 9 10 12 15 16 20 20 18 18 19 18 19 19 20 20 21 21 22 23 23 23 24 25 26 29 30 31 31 30 29 28 28 28 29 29 28 28 27 27 26 26 26 26 26 26 25 25 24 24
10 11 12 12 10 10 9 9 9 10 10 11 11 11 11 12 13 14 15 17 19 20 21 20 19 19 20 20 20 18 15 13 19 21 13 10 12 11 12 13 11 16 23 21 18 18 18 18 18 19 20 20 20 21 22 23 24 24 25 26 28 29 30 31 30 30 30 30 30 30 30 30 30 29 29 29 28 28 27 27 27 27 26 25 25
10 10 10 10 9 9 9 8 9 9 10 10 11 11 11 12 12 13 14 14 16 18 19 21 20 21 23 23 22 22 18 12 15 19 14 10 11 10 13 16 13 15 22 21 17 16 16 18 18 18 19 19 19 20 21 22 23 24 25 26 27 29 30 31 31 31 31 31 31 31 31 31 31 31 31 31 30 29 28 27 27 27 27 26 26
11 11 11 11 10 9 8 8 8 9 9 10 10 11 11 12 11 12 13 13 14 15 16 19 20 20 23 25 27 27 24 21 22 22 17 13 11 9 13 16 13 14 20 19 16 16 17 17 18 18 18 19 19 19 20 21 22 23 25 26 26 28 29 30 31 32 32 33 33 33 33 32 32 32 32 31 31 29 28 27 27 28 28 28 27
11 11 11 11 11 10 9 8 8 9 9 9 10 10 10 11 11 12 13 14 15 15 16 16 17 19 20 21 23 24 23 26 26 23 19 16 14 12 14 14 9 11 18 18 15 16 18 18 18 18 19 19 19 19 20 20 21 23 24 25 25 26 27 28 29 30 31 32 33 33 33 33 33 32 32 31 31 30 29 28 28 28 28 28 27
10 11 11 11 11 10 9 9 8 8 8 8 9 9 10 10 12 13 14 15 16 16 16 17 17 18 18 18 19 20 20 21 20 18 18 16 15 13 11 11 10 12 18 20 16 15 16 17 18 19 19 21 21 20 21 21 21 23 25 25 25 26 28 28 28 28 29 30 32 32 32 32 32 32 31 31 31 30 30 29 28 29 29 28 28
10 11 11 11 11 10 9 9 8 8 7 7 8 8 9 10 11 11 12 14 15 16 17 18 19 20 19 18 18 18 18 17 18 18 17 16 16 16 11 8 10 12 14 17 17 17 19 18 17 18 19 19 21 21 22 23 22 23 25 26 25 26 28 28 27 27 27 28 29 30 31 31 31 31 31 30 30 29 29 29 29 29 29 29 29
10 10 11 11 11 10 9 9 8 8 7 7 7 8 8 10 11 11 12 13 14 15 17 17 19 21 21 20 20 20 19 19 21 22 20 19 19 20 17 11 9 9 10 13 13 15 21 21 19 19 19 19 20 21 22 23 23 23 24 25 24 23 25 27 27 27 27 26 27 27 28 29 29 29 29 29 28 28 28 28 29 29 29 29 29
9 10 10 11 11 11 10 8 8 8 9 9 8 8 9 10 11 11 12 14 14 15 17 18 19 20 22 23 23 23 22 22 25 25 25 25 25 26 26 22 15 9 10 11 10 12 17 19 19 19 19 20 20 19 21 22 23 23 23 24 23 22 22 25 26 27 27 27 26 26 26 26 27 26 27 27 27 27 27 28 28 28 28 28 29
10 10 11 11 11 11 10 9 9 9 9 10 9 9 9 10 11 12 13 13 14 15 17 19 21 21 21 22 23 24 24 23 24 25 26 27 27 28 31 32 27 17 13 13 12 14 17 18 19 19 17 18 18 19 20 21 22 23 23 23 23 21 21 23 25 26 26 26 26 26 26 26 26 25 25 25 25 25 26 26 26 26 26 27 28
10 10 11 11 11 11 10 10 10 10 10 10 10 10 10 11 11 12 12 13 14 16 17 19 22 23 23 23 24 25 25 24 23 24 24 25 26 25 28 31 31 27 23 18 13 15 19 18 18 19 18 16 16 17 18 19 20 22 23 23 22 21 20 22 24 25 25 25 25 25 25 25 25 25 25 24 24 24 24 24 24 25 25 26 27
10 10 11 11 11 11 11 11 11 11 10 10 10 10 10 11 11 12 12 12 14 15 17 18 20 21 23 25 27 28 27 26 26 24 23 24 25 27 29 30 31 31 29 22 15 15 20 21 20 20 20 19 17 16 18 19 19 19 21 22 20 19 19 19 21 23 24 24 25 24 24 24 24 24 24 24 24 23 23 23 24 24 25 26 27
11 11 11 12 12 12 12 12 11 11 10 10 10 10 10 11 11 12 12 12 13 15 17 18 19 19 20 22 24 28 30 29 29 28 26 25 24 27 31 32 31 31 29 24 18 15 18 22 21 21 21 21 20 17 17 19 18 16 18 19 18 16 15 15 16 18 20 22 24 25 23 23 23 23 23 23 23 22 22 23 23 24 24 25 26
11 11 12 12 12 12 12 12 11 10 11 10 9 9 10 11 12 12 12 13 14 16 18 19 20 20 20 21 23 28 31 32 33 34 29 27 25 25 27 28 29 30 29 25 20 16 17 20 21 21 21 22 22 19 17 17 17 16 16 17 18 16 15 14 13 15 16 18 21 24 23 23 23 22 22 22 22 22 22 22 23 23 24 25 25
11 12 12 12 12 12 12 12 11 10 10 10 10 10 10 11 12 13 13 14 14 16 18 20 21 22 23 24 25 27 29 30 34 36 30 28 29 28 27 26 27 30 30 26 23 21 20 20 20 20 20 22 23 22 19 17 16 16 16 17 17 16 16 15 14 14 14 16 19 22 23 22 22 22 22 22 22 22 22 22 23 23 24 25 25
13 13 13 12 12 12 12 12 11 11 10 10 10 10 10 11 12 13 14 14 14 17 19 20 22 24 25 27 27 27 28 28 31 35 32 28 28 29 32 32 29 31 33 30 28 26 22 21 20 21 21 21 21 21 19 17 16 17 17 17 17 17 18 19 19 16 16 17 18 20 22 22 21 21 22 22 23 23 23 23 24 24 24 25 25
13 13 13 12 12 12 12 12 12 12 11 11 11 11 10 11 12 13 14 13 15 18 19 21 23 25 26 28 28 29 29 28 31 33 29 26 26 28 34 36 33 34 35 32 30 29 25 22 21 20 20 20 19 18 17 18 18 17 17 17 17 17 17 19 19 17 18 20 21 22 23 22 22 22 22 23 23 23 24 24 25 25 25 25 25
14 13 13 13 13 13 13 13 13 13 13 13 12 11 11 11 12 13 13 13 15 18 19 21 23 25 26 28 29 30 30 30 33 35 30 28 27 27 32 35 34 36 36 31 28 27 25 24 23 21 21 21 19 17 17 18 19 18 18 18 18 17 17 19 19 18 17 19 22 24 25 25 25 25 25 24 24 24 25 25 26 26 26 26 26
15 14 14 13 14 13 13 13 14 15 15 14 13 11 10 11 12 12 12 13 15 17 19 21 23 24 25 27 29 31 32 30 31 35 35 31 27 25 29 33 35 37 36 30 26 26 25 24 23 22 22 21 20 19 17 17 18 18 18 19 18 18 19 19 20 19 17 17 21 24 25 26 26 26 26 25 25 25 25 26 26 27 27 27 27
15 15 14 14 14 13 13 13 14 14 14 14 12 10 9 10 11 11 11 13 15 17 19 21 22 23 24 26 28 29 31 32 32 36 38 32 26 26 30 32 34 36 36 31 25 23 24 23 21 22 23 22 21 20 18 17 18 19 20 20 18 17 19 20 19 19 18 17 19 21 23 24 23 24 26 26 26 27 26 26 26 27 28 28 28
15 15 15 15 15 14 13 13 13 13 13 12 11 10 10 10 10 11 12 12 14 16 18 20 21 22 23 25 28 29 31 34 34 34 38 37 33 30 29 30 33 33 31 27 22 21 22 22 22 21 21 22 22 21 19 19 19 19 20 20 19 17 19 21 19 19 19 17 18 19 19 19 20 21 23 26 27 27 26 25 26 27 28 27 27
15 14 14 15 14 14 13 12 12 12 11 11 12 12 12 11 10 10 12 13 14 15 16 19 21 22 24 25 28 31 32 33 33 27 25 30 34 35 33 33 34 31 25 22 21 21 22 22 24 23 21 22 24 24 21 21 22 21 19 19 19 18 18 18 15 16 20 19 17 17 17 17 17 18 19 20 22 23 24 25 26 27 26 25 25
14 14 14 14 14 13 13 12 11 12 11 11 13 14 12 11 10 10 12 13 14 14 15 19 21 22 23 25 29 32 31 30 31 27 23 22 24 29 34 36 38 35 29 23 22 25 25 24 25 25 22 22 25 25 23 22 22 21 20 19 19 18 16 15 13 14 18 20 17 16 17 17 17 19 19 18 17 18 20 21 23 24 23 23 24
13 14 14 14 14 13 12 12 12 12 12 12 14 14 12 11 11 11 12 13 13 13 14 18 20 21 23 25 29 30 29 30 28 24 26 31 29 25 26 31 37 40 39 33 28 29 29 27 25 24 24 24 25 24 24 23 22 20 20 19 19 18 16 16 16 14 16 20 19 16 16 16 17 19 19 18 17 17 17 19 21 21 21 21 22
12 13 13 13 13 12 12 13 13 13 13 13 14 15 13 12 12 12 13 13 13 13 15 17 18 20 24 25 27 29 30 29 26 23 26 30 31 31 28 25 30 37 41 41 38 35 31 27 23 24 26 26 24 24 25 24 22 20 20 20 19 18 17 18 19 17 14 19 20 16 15 16 17 18 18 17 16 15 16 18 20 20 20 20 20
12 12 12 13 13 13 13 14 14 13 13 13 14 15 13 11 12 13 13 13 12 13 15 16 17 21 25 24 24 27 28 25 23 25 28 28 30 32 29 23 23 30 37 41 43 43 41 35 28 27 30 30 26 25 25 25 25 22 19 21 21 20 19 19 20 17 14 17 18 15 13 15 17 17 17 15 15 15 15 16 18 19 19 20 20
11 12 12 13 13 13 13 13 14 14 14 13 14 15 12 11 11 12 13 13 12 13 15 16 16 19 23 24 24 27 26 22 22 27 31 31 30 29 27 25 22 24 32 37 39 41 43 41 36 33 35 34 29 26 24 24 24 22 19 19 19 18 17 18 19 17 15 16 17 14 12 14 17 17 16 14 14 13 13 15 18 19 19 19 19
11 11 12 12 12 13 13 13 14 14 14 14 15 15 12 11 11 12 12 12 13 14 16 17 16 17 19 20 23 26 25 23 24 28 31 32 30 26 26 27 24 22 28 33 36 38 39 40 40 39 37 34 30 27 25 23 22 23 21 18 17 18 18 16 17 18 18 18 19 17 14 14 16 16 15 14 14 13 13 14 16 18 18 18 19
11 11 11 12 12 13 14 13 13 13 14 14 15 15 13 12 12 13 13 13 14 14 17 19 18 18 19 19 21 23 24 25 29 31 30 31 30 27 25 27 26 23 24 28 33 38 40 40 41 41 39 36 32 29 28 27 25 24 21 18 19 23 20 14 13 17 19 19 21 21 17 15 16 16 14 13 13 13 12 13 14 16 17 18 19
11 11 11 11 12 13 14 14 13 13 15 14 14 15 13 12 13 15 15 15 15 16 18 20 19 19 20 21 21 21 23 26 30 31 30 32 32 29 27 27 27 24 22 23 26 33 38 39 41 43 41 39 37 33 31 30 29 27 23 19 21 24 20 15 14 16 18 19 22 22 19 17 16 16 14 12 11 13 13 12 14 16 17 17 18
10 10 11 12 13 14 14 14 13 12 13 13 13 14 13 11 14 15 14 15 16 16 16 19 20 20 20 20 21 22 23 26 28 29 29 30 32 32 30 28 26 24 24 23 23 26 31 36 40 42 42 41 41 39 35 32 32 31 29 24 21 20 20 19 19 16 13 16 21 23 20 17 17 16 15 12 8 11 14 14 14 14 15 16 18
Wind_Direction
255 253 251 252 257 257 259 264 266 268 268 264 261 260 262 265 269 270 267 264 264 264 259 255 256 253 249 248 249 251 250 251 251 249 246 240 233 238 246 242 238 239 236 232 232 232 231 227 223 223 231 233 227 225 225 225 227 227 227 227 226 226 226 228 230 231 234 235 237 238 240 242 245 248 251 255 258 261 263 265 269 273 277 279 282
257 255 252 250 252 254 254 257 261 262 264 263 262 261 262 263 267 270 270 267 266 265 263 259 257 253 249 247 248 251 251 248 248 250 247 243 235 231 243 245 236 237 240 237 235 234 235 233 227 224 227 230 228 226 226 226 229 230 230 230 229 230 229 230 232 233 235 238 241 243 245 247 248 251 253 257 260 262 264 267 270 274 277 280 282
261 261 260 258 256 256 256 255 256 256 257 257 258 259 261 263 262 263 266 266 267 266 264 262 260 256 250 246 246 248 250 248 246 248 247 245 240 231 236 245 240 236 238 239 238 235 234 234 232 228 225 227 228 228 228 228 229 232 233 232 232 233 233 233 234 236 237 240 243 245 248 250 252 254 256 259 262 264 266 268 271 274 276 280 283
261 263 265 266 265 262 261 259 256 255 253 251 252 254 257 260 257 256 259 260 262 263 262 261 260 258 253 247 246 247 248 249 248 246 245 243 241 235 232 239 243 241 238 238 240 238 234 233 232 232 229 227 229 230 230 231 231 233 235 235 235 235 235 236 237 238 239 240 243 246 249 251 253 255 257 261 262 265 267 269 272 274 276 280 283
262 267 268 268 268 267 264 261 259 256 253 250 250 252 253 255 254 253 255 255 257 259 259 258 258 256 254 251 247 246 247 249 250 249 246 243 239 238 234 233 237 243 243 240 240 240 235 232 231 233 233 232 231 232 233 234 234 234 236 236 237 237 237 238 239 240 241 242 244 246 249 252 254 256 259 260 262 265 266 269 272 274 277 280 283
267 270 270 270 269 267 264 262 260 256 253 250 247 249 251 253 254 254 253 252 254 256 257 258 257 255 253 252 249 246 247 247 249 250 248 246 240 237 237 235 232 235 240 241 241 241 237 232 230 231 234 235 234 234 234 235 236 236 237 238 240 240 240 241 241 242 243 244 246 247 249 253 255 257 259 261 262 265 267 269 272 275 277 280 283
269 268 267 270 268 266 266 265 263 257 252 247 245 250 251 251 252 255 257 255 254 253 253 256 256 255 253 251 249 245 245 246 247 248 248 247 243 238 238 238 237 233 232 235 240 241 239 235 233 231 232 235 236 236 236 236 236 237 238 240 242 242 243 244 244 245 245 246 248 249 250 253 256 258 260 262 263 265 267 269 271 274 276 278 280
271 269 269 269 267 269 269 265 262 261 257 247 243 247 249 249 248 247 253 257 259 254 248 250 252 253 252 250 247 243 241 244 245 246 247 247 245 241 239 239 239 237 233 230 233 238 241 239 237 234 232 233 236 237 237 237 237 237 238 240 241 243 244 246 247 248 248 249 250 252 254 255 257 259 260 262 264 265 267 269 271 273 274 276 277
277 273 273 274 271 266 265 263 261 260 258 252 248 249 249 251 249 245 243 246 255 258 252 246 246 248 249 248 246 242 240 242 243 244 244 244 244 243 241 240 237 236 235 234 231 232 238 243 241 237 233 232 234 237 237 237 238 238 238 239 241 243 244 246 248 249 250 251 252 253 255 257 258 260 262 263 265 266 268 269 271 273 273 274 276
279 277 273 275 273 267 266 266 261 254 254 255 254 252 251 252 251 248 240 235 241 253 256 249 244 246 247 247 245 242 241 240 241 243 243 241 241 244 244 241 238 234 233 234 234 230 231 238 242 240 235 232 232 235 237 237 238 239 239 240 241 241 243 245 246 248 250 250 251 253 254 256 258 260 262 264 265 266 268 270 271 272 273 273 274
272 276 275 274 272 271 269 264 258 256 255 256 255 250 249 249 249 247 241 235 234 242 254 253 247 246 246 247 246 242 241 241 242 241 241 242 240 240 242 242 238 235 233 232 234 233 228 227 234 236 233 233 232 232 236 238 239 240 240 241 241 241 242 244 245 246 248 250 251 252 254 255 256 259 261 263 265 266 268 269 269 270 271 272 273
260 263 271 274 273 273 271 265 265 266 260 255 255 248 243 244 245 243 238 239 237 238 249 251 246 246 246 247 247 242 241 242 243 241 240 241 241 239 239 240 239 237 235 233 232 233 229 223 225 227 227 232 234 233 235 237 240 241 241 242 242 243 243 243 244 246 248 250 252 254 255 256 257 258 260 262 265 267 268 268 268 268 269 270 272
258 251 259 269 274 276 275 270 266 264 257 253 255 251 243 244 247 243 237 240 241 240 244 246 245 246 245 245 246 246 245 244 241 241 241 240 239 238 236 236 237 236 235 234 233 231 230 226 223 223 223 225 232 236 237 238 239 241 242 243 244 244 245 246 247 248 249 251 254 256 257 258 259 259 260 262 265 267 269 270 270 270 270 271 272
273 263 258 259 263 267 270 267 260 256 254 253 255 254 249 247 248 248 241 238 240 242 240 236 238 246 251 250 249 249 246 242 241 241 241 241 240 238 236 234 234 234 235 234 234 233 232 230 225 224 224 222 224 230 235 238 238 239 241 243 244 244 246 248 250 251 251 253 255 256 258 260 261 261 262 263 265 267 269 270 271 271 272 272 273
282 278 270 264 262 261 264 267 267 264 263 263 262 260 255 251 250 250 248 242 243 245 236 227 227 240 260 265 254 254 247 239 240 239 239 240 240 239 235 235 235 233 234 235 235 234 233 232 228 225 223 222 223 223 227 235 236 237 239 241 241 243 246 248 251 253 253 255 256 257 258 260 261 262 263 265 266 267 269 270 270 271 272 272 273
290 288 282 278 277 275 273 273 275 275 276 276 272 267 261 258 254 248 247 246 247 247 237 231 229 223 235 263 249 253 252 240 235 232 233 237 241 241 236 233 235 233 233 235 236 236 235 233 230 226 224 223 224 223 224 231 234 234 238 240 240 241 244 247 249 252 254 255 256 257 258 259 261 263 264 265 267 267 268 269 269 270 271 271 272
296 293 289 287 285 282 280 275 272 274 278 279 277 274 270 266 260 250 247 246 248 252 244 233 228 219 209 227 246 250 247 249 247 226 222 231 237 238 235 233 235 233 232 235 237 239 238 235 231 227 226 225 225 226 226 229 231 231 235 240 242 242 243 246 248 250 252 254 255 256 257 258 259 262 263 265 266 267 268 268 268 269 270 270 271
306 303 299 295 291 287 283 278 274 272 275 279 279 278 276 272 268 263 260 256 251 251 247 237 232 227 222 226 243 255 262 269 271 243 231 250 255 249 241 235 234 234 234 236 236 238 238 235 232 228 226 227 227 228 228 229 230 230 232 237 243 245 244 245 247 249 250 252 253 254 256 257 259 260 262 264 266 266 268 268 268 269 269 270 270
313 311 308 304 299 294 287 282 280 277 277 280 279 277 276 275 275 273 270 264 254 246 243 242 240 237 232 231 240 249 253 253 254 259 269 271 265 260 259 251 242 235 232 235 236 236 236 233 232 230 227 227 228 229 230 230 231 232 234 237 240 244 247 247 247 247 249 250 252 253 254 256 258 260 261 262 264 266 267 268 268 269 269 269 269
314 313 313 310 304 298 293 290 288 287 284 280 278 277 274 276 280 279 272 264 258 252 249 249 248 241 235 234 242 246 242 240 246 256 266 264 252 252 260 265 263 254 242 237 236 235 234 232 231 232 230 228 227 228 230 231 232 234 236 238 239 241 246 250 250 249 249 250 251 252 253 254 256 258 259 260 261 263 266 267 268 268 268 268 268
314 315 318 318 313 308 306 303 297 293 287 282 281 279 275 274 277 277 273 267 264 259 254 253 251 245 237 238 247 250 247 247 250 251 247 248 255 251 252 257 261 261 257 248 240 238 235 232 231 232 232 231 229 228 230 231 233 235 236 238 241 243 245 248 250 251 252 252 252 253 254 255 255 255 256 258 259 262 266 268 269 268 267 266 266
313 315 319 323 324 320 319 313 304 297 291 288 287 284 280 277 274 272 271 269 268 263 259 258 256 252 247 244 245 245 246 250 250 247 238 235 248 254 254 252 250 254 257 253 244 239 238 235 232 231 232 233 232 231 231 231 233 235 237 238 241 245 247 248 249 250 252 253 253 254 255 256 256 256 256 257 259 262 266 268 267 266 265 265 264
315 315 318 325 326 320 319 315 310 305 300 299 297 295 292 287 282 276 272 269 267 266 266 266 265 260 253 250 250 246 241 242 245 245 240 230 237 252 254 251 250 250 251 250 245 240 239 240 238 235 233 233 234 233 232 233 234 234 236 238 241 245 248 250 251 251 252 253 254 255 256 257 257 257 257 258 260 263 266 266 264 263 263 263 262
317 319 320 325 325 319 316 314 310 306 304 304 301 299 298 294 286 280 279 275 268 267 268 266 263 260 256 253 251 247 242 244 248 248 244 229 227 246 250 248 252 254 251 247 243 241 239 240 242 239 236 234 234 234 233 232 233 235 236 238 242 246 247 249 251 252 253 253 254 254 255 256 257 257 258 258 260 262 264 263 261 261 262 261 261
317 320 321 321 320 317 314 311 305 301 301 301 300 297 295 292 285 280 282 281 275 268 263 262 259 258 259 254 250 249 245 245 245 246 247 238 229 237 247 248 251 258 258 253 245 243 240 239 240 240 238 236 235 234 233 232 233 235 238 240 244 250 251 252 252 251 252 252 252 253 253 254 255 256 257 258 259 261 262 261 259 259 260 261 262
316 318 319 317 316 315 311 308 303 297 296 297 299 295 291 291 287 283 280 279 277 271 266 266 264 262 261 257 254 252 250 248 243 242 245 240 230 231 242 253 253 251 254 252 247 244 243 242 240 238 236 234 235 235 234 236 237 237 240 241 244 251 255 255 253 252 251 251 251 250 251 252 253 254 255 256 257 259 260 260 258 258 258 258 258
313 315 316 314 314 314 308 305 301 298 299 299 300 298 294 294 290 284 282 280 276 272 270 268 266 267 266 262 260 254 248 244 240 240 241 238 234 234 235 247 257 255 252 250 247 244 246 247 244 238 235 231 232 234 235 237 239 238 239 241 242 247 252 253 251 250 250 250 249 248 247 248 249 250 252 253 255 256 257 256 257 257 256 254 254
308 311 312 311 312 313 308 305 302 302 304 301 301 302 299 297 294 290 289 289 284 277 273 267 265 268 268 264 261 258 251 241 237 239 239 237 237 235 233 233 247 259 260 253 249 247 245 246 245 240 235 233 232 234 237 238 239 238 236 236 238 241 247 250 248 246 246 247 246 244 243 243 244 246 248 250 251 252 253 254 255 254 254 253 252
306 308 309 308 308 309 308 305 302 303 306 305 304 304 302 300 299 299 299 297 293 287 281 275 270 268 268 267 263 259 254 246 243 242 238 238 239 237 235 234 232 242 260 257 251 250 247 244 246 243 236 235 234 234 237 237 238 237 233 232 235 236 240 247 248 246 245 245 244 242 240 239 240 241 243 245 247 248 250 252 252 251 251 251 251
304 306 307 307 306 306 306 304 303 303 305 307 307 306 309 309 305 302 302 301 298 292 288 286 283 277 272 271 267 262 259 253 248 241 235 236 237 236 237 236 232 232 247 258 253 251 252 249 249 249 243 236 234 235 237 238 239 237 232 232 234 234 235 243 249 249 247 246 244 241 239 237 237 237 238 240 242 244 245 246 247 247 248 249 250
302 303 306 308 309 307 305 303 307 307 305 307 308 309 310 309 308 306 305 305 302 298 295 294 293 290 285 281 275 270 266 260 254 247 241 237 234 232 235 236 233 231 238 251 256 247 248 251 251 252 251 244 239 238 238 241 243 237 232 233 234 234 233 239 247 249 248 248 245 240 237 235 234 233 233 234 236 238 239 241 243 245 247 249 251
304 302 303 307 307 307 307 306 309 312 311 310 309 309 308 307 307 308 308 308 306 303 302 300 298 295 292 289 285 280 274 266 261 256 249 242 234 233 236 235 234 233 233 240 250 247 245 250 253 253 251 249 244 239 238 243 244 237 233 232 229 229 230 234 243 248 248 246 241 237 234 231 229 228 228 230 232 234 237 239 242 244 247 249 251
306 304 304 305 302 301 302 303 306 310 311 310 308 306 305 305 306 307 309 310 307 307 307 304 301 297 292 289 286 283 278 271 265 261 255 245 238 237 237 234 233 234 232 233 239 247 246 245 249 250 248 246 243 236 235 241 241 234 231 229 223 222 225 228 237 246 249 244 236 232 229 226 225 224 225 228 230 233 236 239 242 244 247 249 251
307 305 305 305 300 297 295 295 297 302 307 307 306 304 302 303 307 310 311 310 309 309 308 306 304 301 297 291 286 285 283 277 269 263 255 247 245 246 240 233 232 234 234 232 233 240 245 241 241 244 242 239 238 235 233 236 238 234 230 227 224 221 220 222 228 239 248 246 235 228 225 223 222 223 225 227 229 233 236 240 244 246 247 249 250
306 304 303 301 298 294 290 289 287 291 300 304 303 303 302 304 308 310 311 309 309 310 309 307 305 303 301 296 291 288 285 280 272 265 257 248 246 249 247 241 238 237 234 230 229 234 243 242 236 237 238 235 236 235 232 231 233 234 232 230 226 218 213 216 224 233 244 247 237 227 223 221 222 224 226 229 232 235 240 243 246 248 249 250 252
306 304 300 297 295 292 288 287 283 282 291 296 299 301 304 306 307 308 309 308 308 309 307 306 305 303 301 298 295 293 289 284 275 266 258 250 244 244 246 244 241 240 237 233 232 234 239 241 236 234 235 235 235 234 229 227 230 231 232 233 228 220 218 223 229 235 240 243 239 229 223 222 227 231 232 234 236 239 243 246 248 250 251 251 252
305 303 298 294 291 287 286 286 282 280 284 288 290 295 301 305 306 307 308 307 308 308 307 306 306 305 303 301 299 297 293 288 280 271 260 250 245 244 246 245 239 238 237 233 233 235 236 238 236 233 234 234 232 228 221 222 228 230 230 230 229 225 222 223 227 231 236 240 239 234 229 229 234 237 238 238 240 242 245 248 249 251 251 252 252
307 304 301 297 291 286 282 283 282 279 280 282 282 286 295 302 306 307 307 308 310 309 308 308 308 309 309 308 304 298 294 289 284 280 270 256 249 246 244 242 237 236 236 231 229 233 234 234 235 232 231 232 229 224 216 215 222 228 228 229 231 228 223 219 220 225 230 233 236 236 234 235 238 241 242 241 242 244 246 248 250 250 251 252 252
305 304 304 301 295 289 284 283 283 281 279 278 275 277 285 296 304 305 306 310 312 311 310 308 309 313 314 313 310 304 300 295 288 286 279 264 252 247 244 242 237 235 235 232 227 230 232 232 233 232 230 229 228 225 218 212 217 224 227 229 230 227 223 220 217 218 221 223 231 237 237 237 241 245 245 243 242 244 247 248 250 251 251 252 252
302 303 305 304 300 295 290 287 287 286 282 276 271 271 279 293 302 303 306 311 312 312 312 310 312 317 318 315 313 309 305 301 294 288 283 274 263 254 248 244 238 233 233 232 228 229 233 233 231 230 230 229 228 225 218 212 216 221 223 227 231 227 225 225 217 211 213 215 223 231 233 233 237 242 245 245 244 243 246 250 252 254 253 252 251
298 300 302 304 303 299 295 291 289 288 284 276 269 267 277 293 300 301 306 309 311 313 312 313 317 320 319 316 315 315 313 311 307 294 280 275 277 270 257 249 245 238 233 232 229 228 230 232 230 229 229 228 226 223 217 212 215 220 219 223 230 229 227 228 220 209 209 213 219 224 226 224 226 231 237 243 245 245 247 251 254 255 254 251 250
295 298 300 302 302 301 299 297 293 292 288 277 270 270 283 297 298 299 303 304 308 313 313 315 320 320 317 316 320 323 321 320 326 322 293 277 276 274 268 262 259 251 237 229 229 229 229 229 229 228 228 229 227 224 222 217 216 220 218 216 222 224 224 228 223 207 204 209 217 223 225 222 221 223 226 231 238 244 249 253 256 256 253 250 249
295 298 300 300 301 302 301 299 298 298 295 283 275 278 289 298 298 296 299 302 306 309 312 317 319 316 314 317 324 329 327 326 332 338 334 321 302 283 272 266 264 260 251 237 228 227 230 231 229 226 227 231 230 226 226 223 219 220 218 214 216 217 218 224 226 212 202 202 209 220 226 223 220 223 226 224 224 233 242 249 255 256 252 248 248
298 299 300 300 301 300 297 297 298 301 303 297 290 288 289 294 297 296 295 299 302 301 308 317 316 313 315 319 324 329 331 331 332 335 340 341 337 323 297 274 263 258 254 249 239 231 230 231 230 228 228 231 231 227 225 224 221 218 216 214 215 214 214 220 226 221 203 196 202 217 226 223 216 219 227 226 222 226 232 236 245 251 250 248 248
298 299 300 301 300 298 297 297 298 301 307 309 302 295 290 289 294 296 294 295 296 297 303 309 311 315 319 320 323 327 330 332 334 337 339 338 336 333 322 296 272 260 254 251 247 241 236 233 232 232 231 231 231 228 225 224 222 218 214 213 213 212 213 218 224 225 203 188 195 211 223 221 214 217 225 225 221 224 228 235 243 248 247 248 247
300 301 304 305 303 302 300 299 300 302 306 308 305 298 290 284 291 298 297 291 290 294 299 302 306 314 320 320 319 324 328 330 334 338 340 338 334 330 323 306 283 265 255 250 247 244 242 239 239 237 235 234 233 229 227 224 221 218 215 213 212 210 213 217 223 223 204 190 194 203 219 219 212 215 223 222 219 220 224 234 243 247 249 248 243
305 306 307 307 307 306 304 302 302 303 305 306 306 300 286 277 288 298 297 291 291 296 300 303 304 309 316 319 319 323 325 326 332 339 339 337 333 328 322 312 294 269 254 247 241 239 237 236 237 236 235 235 235 232 230 225 220 218 218 217 215 214 215 218 220 219 209 202 199 200 217 220 211 215 222 219 217 218 221 233 243 248 252 250 237
305 307 309 311 312 311 310 307 303 303 305 305 305 301 284 273 284 292 291 292 297 299 303 309 310 309 312 314 316 321 323 322 328 336 340 338 332 328 326 322 310 284 260 247 239 235 233 231 232 233 234 236 236 234 232 227 220 218 220 219 218 223 222 215 214 216 214 210 204 203 216 220 211 215 221 216 215 217 218 231 245 250 254 250 235
305 308 310 313 315 314 312 309 303 304 307 305 304 301 287 273 280 288 289 293 296 298 304 311 314 312 312 312 313 315 317 322 329 333 338 340 335 330 328 327 321 305 278 258 245 239 235 232 230 230 231 234 233 232 232 232 226 219 215 212 213 221 224 213 210 217 215 211 205 203 211 217 211 213 217 212 211 214 218 226 235 245 253 246 232
302 305 308 310 314 314 312 310 308 307 308 306 303 301 292 276 276 285 291 296 299 300 305 311 313 313 314 316 318 317 318 324 330 333 336 338 336 332 328 326 324 317 300 279 258 243 235 232 231 231 231 231 230 229 229 231 230 223 218 215 215 219 220 211 211 217 218 215 207 201 206 215 210 207 210 209 208 213 220 222 220 232 246 237 223
295 300 305 310 312 312 312 312 310 306 305 307 305 302 297 282 278 285 292 297 302 303 305 308 311 312 314 317 322 325 326 328 330 331 334 336 336 332 329 325 321 317 311 300 278 255 237 227 226 228 228 229 229 229 228 229 229 225 223 222 221 224 223 217 215 217 221 220 206 196 203 213 207 202 203 202 206 211 213 212 212 224 238 229 217